GW3621 Weather Reports


time (UTC)temp
C
wind
direction
speed
KPH
gust
KPH
rain 1hr
cm
rain 24hr
cm
rain mn
cm
humidity
%
barometer
mb
20260510073031 18 0 0.0 0.0 0.00 0.99 0.03 94 1013.8
20260510071532 19 0 0.0 0.0 0.00 0.99 0.03 94 1013.6
20260510070034 19 0 0.0 0.0 0.00 0.99 0.03 94 1013.3
20260510064529 19 0 0.0 3.2 0.03 0.99 0.03 94 1013.3
20260510063037 19 0 0.0 3.2 0.03 0.99 0.03 94 1013.7
20260510061533 19 0 0.0 0.0 0.03 0.99 0.03 94 1013.6
20260510060036 19 0 0.0 0.0 0.03 0.99 0.03 94 1013.1
20260510054532 19 0 0.0 0.0 0.00 0.97 0.00 94 1013.8
20260510053031 19 0 0.0 0.0 0.00 0.97 0.00 94 1013.9
20260510051531 19 0 0.0 0.0 0.00 0.97 0.00 94 1013.7
20260510050032 19 0 0.0 0.0 0.00 0.97 0.00 94 1013.8
20260510044532 19 0 0.0 0.0 0.03 0.97 0.00 94 1014.1
20260510043034 19 0 0.0 0.0 0.03 0.97 0.00 94 1014.2
20260510041541 19 0 0.0 0.0 0.03 0.97 0.00 94 1014.1
20260510040033 19 0 0.0 0.0 0.05 0.97 0.00 93 1014.5
20260510034534 19 0 0.0 0.0 0.03 0.94 0.94 93 1014.3
20260510033029 19 0 0.0 0.0 0.03 0.94 0.94 93 1014.0
20260510031535 19 0 0.0 0.0 0.03 0.94 0.94 93 1014.0
20260510030032 19 0 0.0 0.0 0.00 0.91 0.91 93 1014.0
20260510024532 19 0 0.0 0.0 0.00 0.94 0.91 93 1014.0
20260510023033 20 0 0.0 0.0 0.00 0.94 0.91 93 1014.0
20260510021536 20 0 0.0 0.0 0.00 0.94 0.91 93 1013.8
20260510020033 20 0 0.0 0.0 0.00 0.94 0.91 93 1013.8
20260510014534 20 0 0.0 0.0 0.00 1.02 0.91 93 1013.6
20260510013038 20 0 0.0 0.0 0.00 1.02 0.91 93 1013.7
20260510011530 20 0 0.0 0.0 0.00 1.02 0.91 93 1013.4
20260510010031 20 0 0.0 0.0 0.03 1.02 0.91 93 1013.6
20260510004534 20 0 0.0 0.0 0.03 1.27 0.91 93 1013.3
20260510003040 20 0 0.0 0.0 0.08 1.27 0.91 93 1013.5
20260510001539 20 0 0.0 0.0 0.08 1.27 0.91 92 1013.3
20260510000031 20 0 0.0 0.0 0.05 1.24 0.89 92 1013.3
20260509234537 20 0 0.0 0.0 0.05 1.24 0.89 92 1013.1
20260509233030 20 0 0.0 0.0 0.00 1.19 0.84 92 1013.1
20260509231530 20 0 0.0 0.0 0.00 1.19 0.84 92 1013.1
20260509230032 20 0 0.0 4.8 0.00 1.19 0.84 92 1012.8
20260509224531 20 0 0.0 3.2 0.00 1.19 0.84 92 1012.7
20260509223030 20 0 0.0 6.4 0.00 1.19 0.84 92 1012.3
20260509221530 20 0 0.0 0.0 0.03 1.19 0.84 92 1012.0
20260509220030 20 0 0.0 0.0 0.03 1.19 0.84 92 1012.2
20260509214537 20 0 0.0 0.0 0.03 1.19 0.84 91 1011.9
20260509213037 21 0 0.0 0.0 0.03 1.19 0.84 92 1012.3
20260509211530 21 0 0.0 0.0 0.00 1.17 0.81 92 1012.2
20260509210034 21 0 0.0 0.0 0.00 1.17 0.81 92 1012.2
20260509204537 21 0 0.0 0.0 0.00 1.17 0.81 92 1012.9
20260509203032 20 0 0.0 0.0 0.00 1.17 0.81 92 1012.7
20260509201531 21 0 0.0 0.0 0.00 1.17 0.81 92 1012.8
20260509200038 20 0 0.0 3.2 0.03 1.17 0.81 92 1012.8
20260509194539 20 0 0.0 3.2 0.08 1.17 0.81 92 1013.0
20260509193038 20 0 0.0 0.0 0.08 1.17 0.81 92 1013.5
20260509191529 20 0 0.0 6.4 0.08 1.17 0.81 92 1014.0
20260509190032 20 0 0.0 0.0 0.05 1.14 0.79 92 1013.8
20260509184535 20 0 0.0 0.0 0.03 1.09 0.74 92 1013.6
20260509183032 20 0 0.0 0.0 0.03 1.09 0.74 92 1013.7
20260509181532 20 279 0.0 4.8 0.05 1.09 0.74 92 1013.8
20260509180029 20 0 1.6 9.7 0.23 1.09 0.74 92 1013.8
20260509174528 20 278 0.0 9.7 0.53 1.07 0.71 92 1013.7
20260509173107 20 0 0.0 11.3 0.69 1.07 0.71 91 1014.0
20260509171536 19 0 0.0 11.3 0.66 1.04 0.69 90 1014.2
20260509170030 20 288 1.6 12.9 0.48 0.86 0.51 88 1014.6
20260509164529 21 344 3.2 20.9 0.13 0.51 0.15 86 1014.6
20260509163030 22 0 0.0 6.4 0.00 0.38 0.03 85 1013.9
20260509161532 23 0 1.6 11.3 0.00 0.38 0.03 85 1013.8
20260509160030 23 0 0.0 9.7 0.00 0.38 0.03 85 1013.8
20260509154534 23 271 0.0 4.8 0.00 0.38 0.03 85 1013.4
20260509153033 22 0 0.0 6.4 0.00 0.38 0.03 86 1013.4
20260509151533 22 0 0.0 6.4 0.00 0.38 0.03 88 1013.4
20260509150028 22 314 0.0 6.4 0.00 0.38 0.03 89 1013.7
20260509144530 21 252 0.0 4.8 0.00 0.38 0.03 91 1013.6
20260509143038 21 0 0.0 0.0 0.00 0.38 0.03 92 1013.8
20260509141532 20 0 0.0 0.0 0.00 0.38 0.03 93 1013.9
20260509140049 20 0 0.0 0.0 0.00 0.38 0.03 93 1014.4
20260509134530 20 0 0.0 0.0 0.00 0.38 0.03 93 1014.3
20260509133030 20 0 0.0 0.0 0.00 0.38 0.03 93 1013.9
20260509131540 20 0 0.0 0.0 0.00 0.38 0.03 94 1013.6
20260509130034 20 0 0.0 0.0 0.00 0.38 0.03 94 1013.8
20260509124535 20 0 0.0 0.0 0.00 0.38 0.03 94 1013.7
20260509123029 19 0 0.0 0.0 0.00 0.38 0.03 94 1013.6
20260509121546 19 0 0.0 3.2 0.00 0.38 0.03 94 1013.3
20260509120036 18 0 0.0 0.0 0.03 0.38 0.03 94 1013.1
20260509114533 18 0 0.0 0.0 0.03 0.38 0.03 94 1013.0
20260509113033 18 0 0.0 0.0 0.03 0.38 0.03 94 1012.9
20260509111530 18 0 0.0 0.0 0.03 0.38 0.03 94 1012.8
20260509110031 18 0 0.0 0.0 0.00 0.36 0.00 93 1012.6
20260509104533 18 0 0.0 0.0 0.00 0.36 0.00 93 1012.4
20260509103035 18 0 0.0 0.0 0.00 0.36 0.00 93 1012.4
20260509101531 18 0 0.0 0.0 0.00 0.36 0.00 93 1012.4
20260509100032 18 0 0.0 0.0 0.00 0.36 0.00 93 1012.0
20260509094532 18 0 0.0 0.0 0.00 0.36 0.00 93 1011.6
20260509093030 18 0 0.0 0.0 0.00 0.36 0.00 93 1011.7
20260509091533 18 0 0.0 0.0 0.00 0.36 0.00 93 1011.9
20260509090032 18 0 0.0 0.0 0.00 0.36 0.00 93 1012.0
20260509084537 18 0 0.0 1.6 0.00 0.36 0.00 93 1012.0
20260509083044 18 0 0.0 4.8 0.00 0.36 0.00 93 1012.2
20260509081530 18 0 0.0 4.8 0.00 0.36 0.00 93 1012.0
20260509080032 18 0 0.0 1.6 0.00 0.36 0.00 93 1012.1
20260509074532 18 0 0.0 3.2 0.00 0.36 0.00 93 1011.7